Terminal Aerodrome Forecast
Issued by NWS

Home | Current Version | Previous Version | Text Only | Print | Product List | Glossary On
Versions: 1 2 3 4 5 6 7 8 9 10 11 12 13 14 15 16 17
000
FTUS43 KFGF 301310 AAA
TAFBJI
TAF AMD
KBJI 301310Z 3013/3112 VRB05KT P6SM FEW070
     FM302000 20008KT P6SM SCT200
     FM310500 13007KT P6SM SHRA BKN060=

USA.gov is the U.S. government's official web portal to all federal, state and local government web resources and services.